When you browse on this site, cookies collect data to enhance your experience and personalize the content and advertising you see.
Visit our Privacy Policy to learn more. By continuing to use the site, you agree to this use of cookies and data.
  • In Lithuania
  • List of Countries
  • For 7 days
  • Water Temperature
  • Satellite Maps
  • Weather Map
  • Weather Widgets
  • user-avatar
    Login

    Hourly Weather Naftalan

    Today, 21 April, Sunday

    Time Temperature Precipitation Wind Pressure Humidity
    00:00 +6°C° 0 mm 5 mps 768 mmHg 69%
    01:00 +6°C° 0 mm 5 mps 768 mmHg 70%
    02:00 +5°C° 0 mm 4 mps 768 mmHg 71%
    03:00 +5°C° 0 mm 5 mps 768 mmHg 71%
    04:00 +6°C° 0 mm 5 mps 768 mmHg 71%
    05:00 +6°C° 0 mm 5 mps 768 mmHg 71%
    06:00 +6°C° 0 mm 5 mps 768 mmHg 71%
    07:00 +7°C° 0 mm 5 mps 768 mmHg 67%
    08:00 +8°C° 0 mm 5 mps 768 mmHg 64%
    09:00 +9°C° 0 mm 5 mps 768 mmHg 58%
    10:00 +10°C° 0 mm 5 mps 768 mmHg 58%
    11:00 +10°C° 0 mm 5 mps 768 mmHg 57%
    12:00 +12°C° 0 mm 5 mps 768 mmHg 56%
    13:00 +12°C° 0 mm 5 mps 768 mmHg 58%
    14:00 +12°C° 0 mm 5 mps 768 mmHg 59%
    15:00 +12°C° 0 mm 5 mps 767 mmHg 60%
    16:00 +10°C° 0 mm 5 mps 768 mmHg 64%
    17:00 +11°C° 0 mm 4 mps 768 mmHg 68%
    18:00 +10°C° 0 mm 4 mps 768 mmHg 72%
    19:00 +8°C° 0 mm 4 mps 768 mmHg 75%
    20:00 +9°C° 0 mm 3 mps 768 mmHg 77%
    21:00 +9°C° 0 mm 3 mps 769 mmHg 80%
    22:00 +8°C° 0 mm 3 mps 769 mmHg 80%
    23:00 +8°C° 0 mm 2 mps 769 mmHg 81%

    Tomorrow, 22 April, Monday

    Time Temperature Precipitation Wind Pressure Humidity
    00:00 +8°C° 0 mm 2 mps 769 mmHg 81%
    01:00 +8°C° 0 mm 2 mps 768 mmHg 81%
    02:00 +8°C° 0 mm 3 mps 768 mmHg 81%
    03:00 +7°C° 0 mm 4 mps 768 mmHg 80%
    04:00 +7°C° 0 mm 4 mps 768 mmHg 80%
    05:00 +7°C° 0 mm 4 mps 768 mmHg 80%
    06:00 +7°C° 0 mm 4 mps 768 mmHg 79%
    07:00 +8°C° 0 mm 5 mps 768 mmHg 76%
    08:00 +9°C° 0 mm 5 mps 768 mmHg 72%
    09:00 +9°C° 0 mm 5 mps 767 mmHg 68%
    10:00 +10°C° 0.2 mm 6 mps 767 mmHg 68%
    11:00 +10°C° 0.2 mm 6 mps 767 mmHg 68%
    12:00 +10°C° 0.2 mm 6 mps 767 mmHg 68%
    13:00 +10°C° 0.5 mm 7 mps 767 mmHg 68%
    14:00 +10°C° 0.5 mm 7 mps 767 mmHg 69%
    15:00 +10°C° 0.5 mm 8 mps 766 mmHg 69%
    16:00 +9°C° 0.8 mm 8 mps 767 mmHg 71%
    17:00 +9°C° 0.8 mm 7 mps 767 mmHg 72%
    18:00 +8°C° 0.8 mm 7 mps 767 mmHg 74%
    19:00 +6°C° 0.9 mm 7 mps 768 mmHg 74%
    20:00 +7°C° 0.9 mm 6 mps 768 mmHg 73%
    21:00 +7°C° 0.9 mm 6 mps 769 mmHg 73%
    22:00 +7°C° 0.8 mm 6 mps 769 mmHg 74%
    23:00 +6°C° 0.8 mm 5 mps 769 mmHg 75%

    Day after tomorrow, 23 April, Tuesday

    Time Temperature Precipitation Wind Pressure Humidity
    00:00 +6°C° 0.8 mm 4 mps 769 mmHg 76%
    01:00 +6°C° 0.7 mm 5 mps 769 mmHg 78%
    02:00 +6°C° 0.7 mm 5 mps 769 mmHg 80%
    03:00 +5°C° 0.7 mm 5 mps 769 mmHg 82%
    04:00 +5°C° 0.4 mm 5 mps 770 mmHg 83%
    05:00 +5°C° 0.4 mm 5 mps 770 mmHg 84%
    06:00 +4°C° 0.4 mm 6 mps 771 mmHg 86%
    07:00 +6°C° 0.3 mm 5 mps 771 mmHg 83%
    08:00 +7°C° 0.3 mm 5 mps 772 mmHg 80%
    09:00 +8°C° 0.3 mm 5 mps 772 mmHg 77%
    10:00 +9°C° 0 mm 5 mps 772 mmHg 69%
    11:00 +12°C° 0 mm 4 mps 772 mmHg 62%
    12:00 +13°C° 0 mm 4 mps 772 mmHg 54%
    13:00 +14°C° 0 mm 3 mps 772 mmHg 51%
    14:00 +15°C° 0 mm 2 mps 772 mmHg 47%
    15:00 +16°C° 0 mm 2 mps 772 mmHg 44%
    16:00 +15°C° 0 mm 2 mps 772 mmHg 48%
    17:00 +14°C° 0 mm 2 mps 773 mmHg 53%
    18:00 +13°C° 0 mm 2 mps 773 mmHg 57%
    19:00 +12°C° 0 mm 2 mps 773 mmHg 61%
    20:00 +10°C° 0 mm 2 mps 774 mmHg 64%
    21:00 +10°C° 0 mm 1 mps 774 mmHg 67%
    22:00 +10°C° 0 mm 1 mps 774 mmHg 67%
    23:00 +10°C° 0 mm 1 mps 774 mmHg 68%

    24 April, Wednesday

    Time Temperature Precipitation Wind Pressure Humidity
    00:00 +9°C° 0 mm 2 mps 774 mmHg 68%
    01:00 +9°C° 0 mm 2 mps 774 mmHg 67%
    02:00 +9°C° 0 mm 2 mps 774 mmHg 67%
    03:00 +8°C° 0 mm 2 mps 774 mmHg 66%
    04:00 +9°C° 0 mm 2 mps 774 mmHg 65%
    05:00 +9°C° 0 mm 2 mps 774 mmHg 64%
    06:00 +10°C° 0 mm 2 mps 775 mmHg 63%
    07:00 +12°C° 0 mm 2 mps 775 mmHg 58%
    08:00 +12°C° 0 mm 3 mps 775 mmHg 54%
    09:00 +13°C° 0 mm 3 mps 775 mmHg 49%
    10:00 +14°C° 0 mm 3 mps 775 mmHg 47%
    11:00 +15°C° 0 mm 4 mps 774 mmHg 45%
    12:00 +15°C° 0 mm 4 mps 774 mmHg 43%
    13:00 +15°C° 0 mm 5 mps 773 mmHg 43%
    14:00 +15°C° 0 mm 5 mps 773 mmHg 43%
    15:00 +15°C° 0 mm 6 mps 773 mmHg 43%
    16:00 +14°C° 0 mm 6 mps 772 mmHg 46%
    17:00 +13°C° 0 mm 6 mps 772 mmHg 50%
    18:00 +11°C° 0 mm 6 mps 772 mmHg 53%
    19:00 +11°C° 0 mm 6 mps 773 mmHg 57%
    20:00 +11°C° 0 mm 6 mps 773 mmHg 60%
    21:00 +10°C° 0 mm 6 mps 773 mmHg 63%
    22:00 +10°C° 0 mm 6 mps 773 mmHg 65%
    23:00 +10°C° 0 mm 6 mps 773 mmHg 68%

    25 April, Thursday

    Time Temperature Precipitation Wind Pressure Humidity
    00:00 +10°C° 0 mm 6 mps 773 mmHg 70%
    01:00 +10°C° 0 mm 5 mps 772 mmHg 71%
    02:00 +10°C° 0 mm 5 mps 772 mmHg 72%
    03:00 +11°C° 0 mm 4 mps 772 mmHg 73%
    04:00 +11°C° 0 mm 4 mps 772 mmHg 72%
    05:00 +11°C° 0 mm 3 mps 772 mmHg 72%
    06:00 +11°C° 0 mm 3 mps 773 mmHg 72%
    07:00 +12°C° 0 mm 3 mps 773 mmHg 66%
    08:00 +14°C° 0 mm 2 mps 773 mmHg 60%
    09:00 +15°C° 0 mm 2 mps 774 mmHg 54%
    10:00 +16°C° 0 mm 2 mps 773 mmHg 52%
    11:00 +17°C° 0 mm 2 mps 773 mmHg 50%
    12:00 +18°C° 0 mm 2 mps 773 mmHg 48%
    13:00 +18°C° 0 mm 3 mps 773 mmHg 48%
    14:00 +17°C° 0 mm 5 mps 773 mmHg 49%
    15:00 +17°C° 0 mm 6 mps 772 mmHg 50%
    16:00 +16°C° 0 mm 5 mps 772 mmHg 54%
    17:00 +15°C° 0 mm 5 mps 773 mmHg 57%
    18:00 +13°C° 0 mm 5 mps 773 mmHg 60%
    19:00 +13°C° 0 mm 5 mps 773 mmHg 63%
    20:00 +12°C° 0 mm 4 mps 774 mmHg 66%
    21:00 +12°C° 0 mm 4 mps 774 mmHg 68%
    22:00 +11°C° 0 mm 4 mps 774 mmHg 69%
    23:00 +11°C° 0 mm 4 mps 773 mmHg 70%

    26 April, Friday

    Time Temperature Precipitation Wind Pressure Humidity
    00:00 +11°C° 0 mm 4 mps 773 mmHg 71%
    01:00 +11°C° 0 mm 4 mps 773 mmHg 69%
    02:00 +11°C° 0 mm 3 mps 773 mmHg 68%
    03:00 +10°C° 0 mm 3 mps 772 mmHg 66%
    04:00 +12°C° 0 mm 2 mps 772 mmHg 64%
    05:00 +12°C° 0 mm 2 mps 773 mmHg 62%
    06:00 +12°C° 0 mm 2 mps 773 mmHg 60%
    07:00 +13°C° 0 mm 1 mps 773 mmHg 56%
    08:00 +15°C° 0 mm 1 mps 773 mmHg 53%
    09:00 +18°C° 0 mm 1 mps 773 mmHg 50%
    10:00 +17°C° 0 mm 2 mps 772 mmHg 46%
    11:00 +18°C° 0 mm 3 mps 772 mmHg 43%
    12:00 +19°C° 0 mm 4 mps 772 mmHg 39%
    13:00 +19°C° 0 mm 4 mps 771 mmHg 40%
    14:00 +19°C° 0 mm 5 mps 771 mmHg 40%
    15:00 +19°C° 0 mm 6 mps 770 mmHg 41%
    16:00 +16°C° 0 mm 6 mps 770 mmHg 44%
    17:00 +15°C° 0 mm 6 mps 770 mmHg 47%
    18:00 +14°C° 0 mm 6 mps 770 mmHg 50%
    19:00 +14°C° 0 mm 6 mps 771 mmHg 54%
    20:00 +13°C° 0 mm 6 mps 771 mmHg 57%
    21:00 +13°C° 0 mm 6 mps 771 mmHg 61%
    22:00 +13°C° 0 mm 6 mps 771 mmHg 64%
    23:00 +12°C° 0 mm 5 mps 770 mmHg 67%
    Show more